Weather History for KNYG - October, 2012

Change the Weather History Date:

Saturday, October 6, 2012

  Actual Average Record
Temperature  
Mean Temperature 68 °F -  
Max Temperature 81 °F 68 °F 87 °F (1997)
Min Temperature 52 °F 50 °F 41 °F (2004)
Cooling Degree Days 2    
Growing Degree Days 18 (Base 50)    
Moisture  
Dew Point 53 °F    
Average Humidity 65    
Maximum Humidity 84    
Minimum Humidity 45    
Precipitation  
Precipitation 0.00 in - - ()
Sea Level Pressure  
Sea Level Pressure 29.94 in    
Wind  
Wind Speed 8 mph (West)    
Max Wind Speed 20 mph    
Max Gust Speed 26 mph    
Visibility 10 miles    
Events      
Averages and records for this station are not official NWS values.
T = Trace of Precipitation, MM = Missing Value Source: NWS Daily Summary

Daily Weather History Graph

Daily Weather History Graph

Search for Another Location

Airport or City:

Trip Planner

Search our weather history database for the weather conditions in past years. The results will help you decide how hot, cold, wet, or windy it might be!

Date:

Astronomy

Oct. 06, 2012 Rise Set
Actual Time 7:10 AM EDT 6:43 PM EDT
Civil Twilight 6:43 AM EDT 7:10 PM EDT
Nautical Twilight 6:12 AM EDT 7:40 PM EDT
Astronomical Twilight 5:42 AM EDT 8:11 PM EDT
Moon 11:00 PM EDT (10/6) 12:59 PM EDT (10/6)
Length of Visible Light 12h 26m
Length of Day
11h 33m
Waning Gibbous, 65% of the Moon is Illuminated
Oct 6
Waning Gibbous
Oct 8
Last Quarter
Oct 15
New
Oct 21
First Quarter
Oct 29
Full

Hourly Weather History & Observations

Time (EDT) Temp. Heat Index Dew Point Humidity Pressure Visibility Wind Dir Wind Speed Gust Speed Precip Events Conditions
12:56 AM 64.9 °F - 57.9 °F 78% 29.96 in 10.0 mi WSW 4.6 mph - N/A   Clear
1:56 AM 66.0 °F - 57.0 °F 73% 29.96 in 10.0 mi SSW 6.9 mph - N/A   Clear
2:56 AM 64.0 °F - 55.9 °F 75% 29.93 in 10.0 mi WSW 5.8 mph - N/A   Clear
3:56 AM 64.0 °F - 55.9 °F 75% 29.92 in 10.0 mi SW 8.1 mph - N/A   Clear
4:56 AM 64.0 °F - 57.9 °F 80% 29.92 in 10.0 mi SSW 11.5 mph - N/A   Clear
5:56 AM 63.0 °F - 57.9 °F 84% 29.92 in 10.0 mi SSW 10.4 mph - N/A   Clear
6:56 AM 63.0 °F - 57.9 °F 84% 29.91 in 10.0 mi SSW 9.2 mph - N/A   Clear
7:56 AM 64.0 °F - 57.9 °F 80% 29.90 in 10.0 mi SSW 11.5 mph - N/A   Clear
8:56 AM 66.0 °F - 59.0 °F 78% 29.89 in 10.0 mi SSW 11.5 mph - N/A   Clear
9:56 AM 69.1 °F - 60.1 °F 73% 29.89 in 10.0 mi SW 8.1 mph - N/A   Partly Cloudy
10:56 AM 71.1 °F - 62.1 °F 73% 29.88 in 10.0 mi SSW 8.1 mph - N/A   Mostly Cloudy
11:56 AM 75.0 °F - 63.0 °F 66% 29.86 in 10.0 mi SSW 6.9 mph - N/A   Clear
12:56 PM 80.1 °F 80.6 °F 57.9 °F 47% 29.86 in 10.0 mi West 8.1 mph - N/A   Clear
1:56 PM 78.1 °F - 57.9 °F 50% 29.86 in 10.0 mi NNW 9.2 mph - N/A   Overcast
2:56 PM 70.0 °F - 54.0 °F 57% 29.90 in 10.0 mi North 19.6 mph 26.5 mph N/A   Overcast
3:56 PM 69.1 °F - 48.9 °F 49% 29.92 in 10.0 mi North 15.0 mph 24.2 mph N/A   Overcast
4:56 PM 68.0 °F - 46.9 °F 47% 29.94 in 10.0 mi North 13.8 mph 21.9 mph N/A   Mostly Cloudy
5:56 PM 66.0 °F - 44.1 °F 45% 29.96 in 10.0 mi North 8.1 mph 17.3 mph N/A   Clear
6:56 PM 62.1 °F - 43.0 °F 50% 29.99 in 10.0 mi North 9.2 mph - N/A   Clear
7:56 PM 60.1 °F - 41.0 °F 49% 30.01 in 10.0 mi North 10.4 mph - N/A   Clear
8:56 PM 59.0 °F - 42.1 °F 53% 30.04 in 10.0 mi North 9.2 mph - N/A   Clear
9:56 PM 57.9 °F - 42.1 °F 56% 30.06 in 10.0 mi NNE 3.5 mph - N/A   Clear
10:56 PM 55.0 °F - 42.1 °F 62% 30.07 in 10.0 mi Calm Calm - N/A   Partly Cloudy
11:56 PM 52.0 °F - 45.0 °F 77% 30.07 in 10.0 mi NNW 4.6 mph - N/A   Clear